Novato, CA

7:46 AM PST on December 14, 2019 (GMT -0800)
Gnoss

Weather History for KDVO - October, 2019

Change the Weather History Date:

Sunday, October 6, 2019

  Actual Average (WUND) Record (WUND)
Temperature  
Mean Temperature 64 °F -  
Max Temperature 84 °F - - (-1)
Min Temperature 44 °F - - (-1)
Degree Days  
Heating Degree Days 1    
Growing Degree Days 14 (Base 50)    
Moisture  
Dew Point 37 °F    
Average Humidity 45    
Maximum Humidity 76    
Minimum Humidity 16    
Precipitation  
Precipitation 0.00 in - - ()
Sea Level Pressure  
Sea Level Pressure 30.02 in    
Wind  
Wind Speed 2 mph ()    
Max Wind Speed 9 mph    
Max Gust Speed 12 mph    
Visibility 9.8 miles    
Events      
Averages and records for this station are not official NWS values.
T = Trace of Precipitation, MM = Missing Value Source: Averaged Metar Reports

Daily Weather History Graph

Daily Weather History Graph

Search for Another Location

Airport or City:

Astronomy

Oct. 06, 2019 Rise Set
Actual Time 7:10 AM PDT 6:45 PM PDT
Civil Twilight 6:44 AM PDT 7:12 PM PDT
Nautical Twilight 6:13 AM PDT 7:42 PM PDT
Astronomical Twilight 5:42 AM PDT 8:13 PM PDT
Moon 3:22 PM PDT (10/6) 12:20 AM PDT (10/6)
Length of Visible Light 12h 28m
Length of Day
11h 35m
First Quarter, 61% of the Moon is Illuminated
Oct 6
First Quarter
Oct 13
Full
Oct 21
Last Quarter
Oct 27
New
Nov 4
First Quarter

Hourly Weather History & Observations

Time (PDT) Temp. Dew Point Humidity Pressure Visibility Wind Dir Wind Speed Gust Speed Precip Events Conditions
12:15 AM 53.6 °F 35.6 °F 51% 30.02 in 10.0 mi Calm Calm - N/A   Clear
12:35 AM 53.6 °F 35.6 °F 51% 30.02 in 10.0 mi Calm Calm - N/A   Clear
12:55 AM 46.4 °F 33.8 °F 62% 30.02 in 10.0 mi Calm Calm - N/A   Clear
1:15 AM 48.2 °F 35.6 °F 62% 30.02 in 10.0 mi Calm Calm - N/A   Clear
1:35 AM 48.2 °F 35.6 °F 62% 30.02 in 10.0 mi Calm Calm - N/A   Clear
1:55 AM 51.8 °F 37.4 °F 58% 30.02 in 10.0 mi Calm Calm - N/A   Clear
2:15 AM 46.4 °F 35.6 °F 66% 30.02 in 10.0 mi Calm Calm - N/A   Clear
2:35 AM 50.0 °F 35.6 °F 58% 30.02 in 10.0 mi Calm Calm - N/A   Clear
2:55 AM 48.2 °F 35.6 °F 62% 30.02 in 10.0 mi Calm Calm - N/A   Clear
3:15 AM 48.2 °F 35.6 °F 62% 30.01 in 10.0 mi Calm Calm - N/A   Clear
3:35 AM 50.0 °F 35.6 °F 58% 30.01 in 10.0 mi Calm Calm - N/A   Clear
3:55 AM 48.2 °F 35.6 °F 62% 30.01 in 10.0 mi Calm Calm - N/A   Clear
4:15 AM 44.6 °F 35.6 °F 71% 30.01 in 10.0 mi Calm Calm - N/A   Clear
4:35 AM 46.4 °F 37.4 °F 71% 30.01 in 10.0 mi Calm Calm - N/A   Clear
4:55 AM 48.2 °F 35.6 °F 62% 30.01 in 10.0 mi Calm Calm - N/A   Clear
5:15 AM 50.0 °F 39.2 °F 66% 30.01 in 10.0 mi Calm Calm - N/A   Clear
5:35 AM 44.6 °F 35.6 °F 71% 30.02 in 10.0 mi Calm Calm - N/A   Clear
5:55 AM 44.6 °F 35.6 °F 71% 30.02 in 10.0 mi Calm Calm - N/A   Clear
6:15 AM 44.6 °F 35.6 °F 71% 30.02 in 10.0 mi Calm Calm - N/A   Clear
6:35 AM 48.2 °F 39.2 °F 71% 30.03 in 10.0 mi Calm Calm - N/A   Clear
6:55 AM 48.2 °F 37.4 °F 66% 30.04 in 10.0 mi Calm Calm - N/A   Clear
7:15 AM 48.2 °F 37.4 °F 66% 30.04 in 10.0 mi SSW 4.6 mph - N/A   Clear
7:35 AM 48.2 °F 41.0 °F 76% 30.04 in 10.0 mi South 4.6 mph - N/A   Clear
7:55 AM 50.0 °F 41.0 °F 71% 30.05 in 10.0 mi Calm Calm - N/A   Clear
8:15 AM 50.0 °F 41.0 °F 71% 30.05 in 10.0 mi Calm Calm - N/A   Clear
8:35 AM 53.6 °F 42.8 °F 67% 30.05 in 10.0 mi Calm Calm - N/A   Unknown
8:55 AM 57.2 °F 42.8 °F 59% 30.05 in 10.0 mi Calm Calm - N/A   Clear
9:15 AM 60.8 °F 41.0 °F 48% 30.06 in 10.0 mi South 3.5 mph - N/A   Clear
9:35 AM 66.2 °F 39.2 °F 37% 30.06 in 10.0 mi South 5.8 mph - N/A   Clear
9:55 AM 68.0 °F 39.2 °F 35% 30.06 in 10.0 mi SSW 4.6 mph - N/A   Clear
10:15 AM 69.8 °F 39.2 °F 33% 30.07 in 10.0 mi South 4.6 mph - N/A   Clear
10:35 AM 71.6 °F 37.4 °F 29% 30.07 in 10.0 mi SSE 6.9 mph - N/A   Clear
10:55 AM 73.4 °F 37.4 °F 27% 30.06 in 10.0 mi SSE 5.8 mph - N/A   Clear
11:15 AM 75.2 °F 39.2 °F 27% 30.07 in 10.0 mi SE 6.9 mph - N/A   Clear
11:35 AM 73.4 °F 39.2 °F 29% 30.07 in 10.0 mi ESE 9.2 mph - N/A   Clear
11:55 AM 75.2 °F 39.2 °F 27% 30.06 in 10.0 mi ESE 8.1 mph - N/A   Clear
12:15 PM 77.0 °F 37.4 °F 24% 30.05 in 9.0 mi SE 5.8 mph - N/A   Clear
12:35 PM 77.0 °F 37.4 °F 24% 30.05 in 9.0 mi Variable 4.6 mph - N/A   Clear
12:55 PM 78.8 °F 33.8 °F 20% 30.04 in 9.0 mi SE 6.9 mph - N/A   Clear
1:15 PM 80.6 °F 33.8 °F 18% 30.03 in 10.0 mi Variable 3.5 mph - N/A   Clear
1:35 PM 82.4 °F 35.6 °F 19% 30.02 in 9.0 mi Variable 6.9 mph - N/A   Clear
1:55 PM 84.2 °F 35.6 °F 18% 30.02 in 7.0 mi ESE 6.9 mph - N/A   Clear
2:15 PM 84.2 °F 35.6 °F 18% 30.01 in 9.0 mi ESE 8.1 mph - N/A   Clear
2:35 PM 84.2 °F 33.8 °F 16% 29.99 in 9.0 mi SE 8.1 mph - N/A   Clear
2:55 PM 84.2 °F 33.8 °F 16% 29.98 in 10.0 mi ESE 6.9 mph - N/A   Clear
3:15 PM 84.2 °F 35.6 °F 18% 29.98 in 9.0 mi SE 6.9 mph - N/A   Clear
3:35 PM 84.2 °F 33.8 °F 16% 29.98 in 10.0 mi SE 6.9 mph - N/A   Clear
3:55 PM 84.2 °F 35.6 °F 18% 29.98 in 10.0 mi Variable 4.6 mph 11.5 mph N/A   Clear
4:15 PM 84.2 °F 35.6 °F 18% 29.97 in 10.0 mi SSW 8.1 mph - N/A   Clear
4:35 PM 84.2 °F 37.4 °F 19% 29.97 in 10.0 mi SSE 9.2 mph - N/A   Clear
4:55 PM 84.2 °F 37.4 °F 19% 29.96 in 10.0 mi South 6.9 mph - N/A   Clear